SAOCOM 1A

Last updated on Tue Aug 25 2026 00:02:08 GMT+0000 (Coordinated Universal Time)

1 43641U 18076A 26236.59173588 -.00000164 00000+0 -14033-4 0 9992 2 43641 97.8900 62.3542 0001437 83.9692 276.1685 14.82151651426233
UTC large
Height (km)
Speed (km/s)
/
Latitude / Longitude
Inclination (degrees)
Orbital Period (minutes)
Azimuth
Elevation
Range (km)
Doppler Factor

Next 0 passes for location: London (51.5072 / 0.1276)

No passes found over London.
SAOCOM 1A